DMSP 5D-2 F13 DEB, 42276

Orbit data source: Space-Track

DMSP 5D-2 F13 DEB, 42276 is space debris in SSO originally from a launch on Fri, 24 Mar 1995 UTC launched from the Air Force Western Test Range (AFWTR). Debris objects in space refer to the collection of defunct objects orbiting the Earth. Examples of debris include non-operational satellites, rocket bodies, and fragments generated from explosions, collisions, or faulty payload assembly.

Loading next visibility...
Identifier
42276, 1995-015GS
Orbit
SSO
Country
Flag of USUS
Related business
Manufacturer
Unknown
Mission
Spacecraft
Bus & Motor
Unknown
Mass
Unknown
Launch date (UTC)
1995-03-24 (31 years ago)
Launch vehicle
Unknown
Launch site
Air Force Western Test Range (AFWTR)
Object type
Payload
Rocket body
Debris
Shape & HBR
Unknown shape, 0.1 m
Radar Cross Section
Small (<0.1 m²)

Expand to show TLE details & history
Last TLE update: 4 weeks ago

TLE from 4 weeks ago
0 DMSP 5D-2 F13 DEB
1 42276U 95015GS  26134.50399585  .00000182  00000-0  16407-3 0  9993
2 42276  99.0779  54.7289 0114053 198.6515 161.0450 13.93264761562932
Epoch: 2026-05-14T12:05Z
TLE epoch observation values (Epoch: 2026-05-14T12:05:45.241Z)
Latitude
0.00003°
Longitude
1.04167°
Altitude
998.885 km
Speed
7.312 km/s
True Right ascension
03h 38m 54s
True Declination
0° 00' 00"
Sunlit
Object was in daylight at epoch
Visualization orbit readout
Latitude
Unknown
Longitude
Unknown
Altitude
Unknown
Speed
Unknown
Apparent Right ascension
Unknown
Apparent Declination
Unknown
Sunlit
N/A
Visualization observer readout
Local Sidereal Time
19:28:24
Azimuth
Unknown
Elevation
Unknown
Doppler factor
Unknown
Orbital elements
Apogee altitude
997.598 km
Perigee altitude
831.25 km
Semi-major axis
7,292.561 km
Eccentricity
0.01141
Inclination
99.0779°
RAAN
54.7289°
Arg. of periapsis
198.6515°
True anomaly
161.46388°
Mean anomaly
161.045°
Eccentric anomaly
161.255°
Mean motion
3.48516 °/min
Orbital period
103.3 mins
BSTAR
0.00016407
Loading maneuver chart data...
Computing Atmospheric mass density...

Documentation

Showing up to 5 results
|